Time,TemperatureF,DewpointF,PressureIn,WindDirection,WindDirectionDegrees,WindSpeedMPH,WindSpeedGustMPH,Humidity,HourlyPrecipIn,Conditions,Clouds,dailyrainin,SolarRadiationWatts/m^2,SoftwareType,DateUTC
2013-03-01 00:33:00,55.0,8.0,-100.00,ENE,72,10.0,20.0,15,0.00,,,0.00,0.000000,,2013-03-01 08:33:00,
2013-03-01 00:43:00,55.0,8.0,-100.00,ENE,72,10.0,20.0,15,0.00,,,0.00,0.000000,,2013-03-01 08:43:00,
2013-03-01 00:53:00,55.0,8.0,-100.00,ENE,72,10.0,20.0,15,0.00,,,0.00,0.000000,,2013-03-01 08:53:00,
2013-03-01 01:02:00,55.0,8.0,-100.00,ENE,72,10.0,20.0,15,0.00,,,0.00,0.000000,,2013-03-01 09:02:00,
2013-03-01 01:11:00,55.0,8.0,-100.00,ENE,72,10.0,20.0,15,0.00,,,0.00,0.000000,,2013-03-01 09:11:00,
2013-03-01 01:32:00,56.0,9.0,-100.00,ENE,64,11.0,20.0,15,0.00,,,0.00,0.000000,,2013-03-01 09:32:00,
2013-03-01 01:42:00,56.0,9.0,-100.00,ENE,64,11.0,20.0,15,0.00,,,0.00,0.000000,,2013-03-01 09:42:00,
2013-03-01 01:52:00,56.0,9.0,-100.00,ENE,64,11.0,20.0,15,0.00,,,0.00,0.000000,,2013-03-01 09:52:00,
2013-03-01 02:01:00,56.0,9.0,-100.00,ENE,64,11.0,20.0,15,0.00,,,0.00,0.000000,,2013-03-01 10:01:00,
2013-03-01 02:11:00,56.0,9.0,-100.00,ENE,64,11.0,20.0,15,0.00,,,0.00,0.000000,,2013-03-01 10:11:00,
2013-03-01 02:32:00,58.0,9.0,-100.00,ENE,72,15.0,26.0,14,0.00,,,0.00,0.000000,,2013-03-01 10:32:00,
2013-03-01 02:42:00,58.0,9.0,-100.00,ENE,72,15.0,26.0,14,0.00,,,0.00,0.000000,,2013-03-01 10:42:00,
2013-03-01 02:52:00,58.0,9.0,-100.00,ENE,72,15.0,26.0,14,0.00,,,0.00,0.000000,,2013-03-01 10:52:00,
2013-03-01 03:01:00,58.0,9.0,-100.00,ENE,72,15.0,26.0,14,0.00,,,0.00,0.000000,,2013-03-01 11:01:00,
2013-03-01 03:11:00,58.0,9.0,-100.00,ENE,72,15.0,26.0,14,0.00,,,0.00,0.000000,,2013-03-01 11:11:00,
2013-03-01 03:32:00,58.0,7.0,-100.00,ENE,71,19.0,32.0,13,0.00,,,0.00,0.000000,,2013-03-01 11:32:00,
2013-03-01 03:42:00,58.0,7.0,-100.00,ENE,71,19.0,32.0,13,0.00,,,0.00,0.000000,,2013-03-01 11:42:00,
2013-03-01 03:52:00,58.0,7.0,-100.00,ENE,71,19.0,32.0,13,0.00,,,0.00,0.000000,,2013-03-01 11:52:00,
2013-03-01 04:01:00,58.0,7.0,-100.00,ENE,71,19.0,32.0,13,0.00,,,0.00,0.000000,,2013-03-01 12:01:00,
2013-03-01 04:11:00,58.0,7.0,-100.00,ENE,71,19.0,32.0,13,0.00,,,0.00,0.000000,,2013-03-01 12:11:00,
2013-03-01 04:32:00,56.0,6.0,-100.00,ENE,67,21.0,35.0,13,0.00,,,0.00,0.000000,,2013-03-01 12:32:00,
2013-03-01 04:42:00,56.0,6.0,-100.00,ENE,67,21.0,35.0,13,0.00,,,0.00,0.000000,,2013-03-01 12:42:00,
2013-03-01 04:52:00,56.0,6.0,-100.00,ENE,67,21.0,35.0,13,0.00,,,0.00,0.000000,,2013-03-01 12:52:00,
2013-03-01 05:01:00,56.0,6.0,-100.00,ENE,67,21.0,35.0,13,0.00,,,0.00,0.000000,,2013-03-01 13:01:00,
2013-03-01 05:11:00,56.0,6.0,-100.00,ENE,67,21.0,35.0,13,0.00,,,0.00,0.000000,,2013-03-01 13:11:00,
2013-03-01 05:32:00,58.0,7.0,-100.00,ENE,68,21.0,35.0,13,0.00,,,0.00,0.000000,,2013-03-01 13:32:00,
2013-03-01 05:42:00,58.0,7.0,-100.00,ENE,68,21.0,35.0,13,0.00,,,0.00,0.000000,,2013-03-01 13:42:00,
2013-03-01 05:52:00,58.0,7.0,-100.00,ENE,68,21.0,35.0,13,0.00,,,0.00,0.000000,,2013-03-01 13:52:00,
2013-03-01 06:01:00,58.0,7.0,-100.00,ENE,68,21.0,35.0,13,0.00,,,0.00,0.000000,,2013-03-01 14:01:00,
2013-03-01 06:11:00,58.0,7.0,-100.00,ENE,68,21.0,35.0,13,0.00,,,0.00,0.000000,,2013-03-01 14:11:00,
2013-03-01 06:32:00,56.0,6.0,-100.00,ENE,71,21.0,34.0,13,0.00,,,0.00,0.000000,,2013-03-01 14:32:00,
2013-03-01 06:42:00,56.0,6.0,-100.00,ENE,71,21.0,34.0,13,0.00,,,0.00,0.000000,,2013-03-01 14:42:00,
2013-03-01 06:52:00,56.0,6.0,-100.00,ENE,71,21.0,34.0,13,0.00,,,0.00,0.000000,,2013-03-01 14:52:00,
2013-03-01 07:01:00,56.0,6.0,-100.00,ENE,71,21.0,34.0,13,0.00,,,0.00,0.000000,,2013-03-01 15:01:00,
2013-03-01 07:11:00,56.0,6.0,-100.00,ENE,71,21.0,34.0,13,0.00,,,0.00,0.000000,,2013-03-01 15:11:00,
2013-03-01 07:32:00,59.0,6.0,-100.00,ENE,71,24.0,40.0,12,0.00,,,0.00,62.000000,,2013-03-01 15:32:00,
2013-03-01 07:42:00,59.0,6.0,-100.00,ENE,71,24.0,40.0,12,0.00,,,0.00,62.000000,,2013-03-01 15:42:00,
2013-03-01 07:52:00,59.0,6.0,-100.00,ENE,71,24.0,40.0,12,0.00,,,0.00,62.000000,,2013-03-01 15:52:00,
2013-03-01 08:01:00,59.0,6.0,-100.00,ENE,71,24.0,40.0,12,0.00,,,0.00,62.000000,,2013-03-01 16:01:00,
2013-03-01 08:11:00,59.0,6.0,-100.00,ENE,71,24.0,40.0,12,0.00,,,0.00,62.000000,,2013-03-01 16:11:00,
2013-03-01 08:32:00,60.0,7.0,-100.00,ENE,68,25.0,41.0,12,0.00,,,0.00,325.000000,,2013-03-01 16:32:00,
2013-03-01 08:42:00,60.0,7.0,-100.00,ENE,68,25.0,41.0,12,0.00,,,0.00,325.000000,,2013-03-01 16:42:00,
2013-03-01 08:52:00,60.0,7.0,-100.00,ENE,68,25.0,41.0,12,0.00,,,0.00,325.000000,,2013-03-01 16:52:00,
2013-03-01 09:01:00,60.0,7.0,-100.00,ENE,68,25.0,41.0,12,0.00,,,0.00,325.000000,,2013-03-01 17:01:00,
2013-03-01 09:11:00,60.0,7.0,-100.00,ENE,68,25.0,41.0,12,0.00,,,0.00,325.000000,,2013-03-01 17:11:00,
2013-03-01 09:32:00,60.0,7.0,-100.00,ENE,72,25.0,40.0,12,0.00,,,0.00,589.000000,,2013-03-01 17:32:00,
2013-03-01 09:42:00,60.0,7.0,-100.00,ENE,72,25.0,40.0,12,0.00,,,0.00,589.000000,,2013-03-01 17:42:00,
2013-03-01 09:52:00,60.0,7.0,-100.00,ENE,72,25.0,40.0,12,0.00,,,0.00,589.000000,,2013-03-01 17:52:00,
2013-03-01 10:01:00,60.0,7.0,-100.00,ENE,72,25.0,40.0,12,0.00,,,0.00,589.000000,,2013-03-01 18:01:00,
2013-03-01 10:11:00,60.0,7.0,-100.00,ENE,72,25.0,40.0,12,0.00,,,0.00,589.000000,,2013-03-01 18:11:00,
2013-03-01 10:32:00,63.0,10.0,-100.00,ENE,71,27.0,45.0,12,0.00,,,0.00,834.000000,,2013-03-01 18:32:00,
2013-03-01 10:42:00,63.0,10.0,-100.00,ENE,71,27.0,45.0,12,0.00,,,0.00,834.000000,,2013-03-01 18:42:00,
2013-03-01 10:52:00,63.0,10.0,-100.00,ENE,71,27.0,45.0,12,0.00,,,0.00,834.000000,,2013-03-01 18:52:00,
2013-03-01 11:01:00,63.0,10.0,-100.00,ENE,71,27.0,45.0,12,0.00,,,0.00,834.000000,,2013-03-01 19:01:00,
2013-03-01 11:11:00,63.0,10.0,-100.00,ENE,71,27.0,45.0,12,0.00,,,0.00,834.000000,,2013-03-01 19:11:00,
2013-03-01 11:32:00,64.0,10.0,-100.00,ENE,72,25.0,40.0,12,0.00,,,0.00,985.000000,,2013-03-01 19:32:00,
2013-03-01 11:42:00,64.0,10.0,-100.00,ENE,72,25.0,40.0,12,0.00,,,0.00,985.000000,,2013-03-01 19:42:00,
2013-03-01 11:52:00,64.0,10.0,-100.00,ENE,72,25.0,40.0,12,0.00,,,0.00,985.000000,,2013-03-01 19:52:00,
2013-03-01 12:01:00,64.0,10.0,-100.00,ENE,72,25.0,40.0,12,0.00,,,0.00,985.000000,,2013-03-01 20:01:00,
2013-03-01 12:11:00,64.0,10.0,-100.00,ENE,72,25.0,40.0,12,0.00,,,0.00,985.000000,,2013-03-01 20:11:00,
2013-03-01 12:32:00,66.0,12.0,-100.00,ENE,67,22.0,41.0,12,0.00,,,0.00,1056.000000,,2013-03-01 20:32:00,
2013-03-01 12:42:00,66.0,12.0,-100.00,ENE,67,22.0,41.0,12,0.00,,,0.00,1056.000000,,2013-03-01 20:42:00,
2013-03-01 12:52:00,66.0,12.0,-100.00,ENE,67,22.0,41.0,12,0.00,,,0.00,1056.000000,,2013-03-01 20:52:00,
2013-03-01 13:01:00,66.0,12.0,-100.00,ENE,67,22.0,41.0,12,0.00,,,0.00,1056.000000,,2013-03-01 21:01:00,
2013-03-01 13:11:00,66.0,12.0,-100.00,ENE,67,22.0,41.0,12,0.00,,,0.00,1056.000000,,2013-03-01 21:11:00,
2013-03-01 13:32:00,67.0,13.0,-100.00,ENE,72,20.0,36.0,12,0.00,,,0.00,1039.000000,,2013-03-01 21:32:00,
2013-03-01 13:42:00,67.0,13.0,-100.00,ENE,72,20.0,36.0,12,0.00,,,0.00,1039.000000,,2013-03-01 21:42:00,
2013-03-01 13:52:00,67.0,13.0,-100.00,ENE,72,20.0,36.0,12,0.00,,,0.00,1039.000000,,2013-03-01 21:52:00,
2013-03-01 14:01:00,67.0,13.0,-100.00,ENE,72,20.0,36.0,12,0.00,,,0.00,1039.000000,,2013-03-01 22:01:00,
2013-03-01 14:11:00,67.0,13.0,-100.00,ENE,72,20.0,36.0,12,0.00,,,0.00,1039.000000,,2013-03-01 22:11:00,
2013-03-01 14:32:00,66.0,12.0,-100.00,ENE,68,17.0,33.0,12,0.00,,,0.00,934.000000,,2013-03-01 22:32:00,
2013-03-01 14:42:00,66.0,12.0,-100.00,ENE,68,17.0,33.0,12,0.00,,,0.00,934.000000,,2013-03-01 22:42:00,
2013-03-01 14:52:00,66.0,12.0,-100.00,ENE,68,17.0,33.0,12,0.00,,,0.00,934.000000,,2013-03-01 22:52:00,
2013-03-01 15:01:00,66.0,12.0,-100.00,ENE,68,17.0,33.0,12,0.00,,,0.00,934.000000,,2013-03-01 23:01:00,
2013-03-01 15:11:00,66.0,12.0,-100.00,ENE,68,17.0,33.0,12,0.00,,,0.00,934.000000,,2013-03-01 23:11:00,
2013-03-01 15:32:00,66.0,12.0,-100.00,ENE,73,15.0,28.0,12,0.00,,,0.00,757.000000,,2013-03-01 23:32:00,
2013-03-01 15:42:00,66.0,12.0,-100.00,ENE,73,15.0,28.0,12,0.00,,,0.00,757.000000,,2013-03-01 23:42:00,
2013-03-01 15:52:00,66.0,12.0,-100.00,ENE,73,15.0,28.0,12,0.00,,,0.00,757.000000,,2013-03-01 23:52:00,
2013-03-01 16:01:00,66.0,12.0,-100.00,ENE,73,15.0,28.0,12,0.00,,,0.00,757.000000,,2013-03-02 00:01:00,
2013-03-01 16:11:00,66.0,12.0,-100.00,ENE,73,15.0,28.0,12,0.00,,,0.00,757.000000,,2013-03-02 00:11:00,
2013-03-01 16:42:00,65.0,11.0,-100.00,ENE,68,15.0,25.0,12,0.00,,,0.00,518.000000,,2013-03-02 00:42:00,
2013-03-01 16:52:00,65.0,11.0,-100.00,ENE,68,15.0,25.0,12,0.00,,,0.00,518.000000,,2013-03-02 00:52:00,
2013-03-01 17:01:00,65.0,11.0,-100.00,ENE,68,15.0,25.0,12,0.00,,,0.00,518.000000,,2013-03-02 01:01:00,
2013-03-01 17:11:00,65.0,11.0,-100.00,ENE,68,15.0,25.0,12,0.00,,,0.00,518.000000,,2013-03-02 01:11:00,
2013-03-01 17:42:00,63.0,11.0,-100.00,ENE,59,12.0,24.0,13,0.00,,,0.00,189.000000,,2013-03-02 01:42:00,
2013-03-01 17:52:00,63.0,11.0,-100.00,ENE,59,12.0,24.0,13,0.00,,,0.00,189.000000,,2013-03-02 01:52:00,
2013-03-01 18:01:00,63.0,11.0,-100.00,ENE,59,12.0,24.0,13,0.00,,,0.00,189.000000,,2013-03-02 02:01:00,
2013-03-01 18:11:00,63.0,11.0,-100.00,ENE,59,12.0,24.0,13,0.00,,,0.00,189.000000,,2013-03-02 02:11:00,
2013-03-01 18:32:00,61.0,11.0,-100.00,ENE,61,12.0,24.0,14,0.00,,,0.00,9.000000,,2013-03-02 02:32:00,
2013-03-01 18:42:00,61.0,11.0,-100.00,ENE,61,12.0,24.0,14,0.00,,,0.00,9.000000,,2013-03-02 02:42:00,
2013-03-01 18:52:00,61.0,11.0,-100.00,ENE,61,12.0,24.0,14,0.00,,,0.00,9.000000,,2013-03-02 02:52:00,
2013-03-01 19:01:00,61.0,11.0,-100.00,ENE,61,12.0,24.0,14,0.00,,,0.00,9.000000,,2013-03-02 03:01:00,
2013-03-01 19:11:00,61.0,11.0,-100.00,ENE,61,12.0,24.0,14,0.00,,,0.00,9.000000,,2013-03-02 03:11:00,
2013-03-01 19:32:00,61.0,14.0,-100.00,ENE,61,13.0,22.0,16,0.00,,,0.00,0.000000,,2013-03-02 03:32:00,
2013-03-01 19:42:00,61.0,14.0,-100.00,ENE,61,13.0,22.0,16,0.00,,,0.00,0.000000,,2013-03-02 03:42:00,
2013-03-01 19:52:00,61.0,14.0,-100.00,ENE,61,13.0,22.0,16,0.00,,,0.00,0.000000,,2013-03-02 03:52:00,
2013-03-01 20:01:00,61.0,14.0,-100.00,ENE,61,13.0,22.0,16,0.00,,,0.00,0.000000,,2013-03-02 04:01:00,
2013-03-01 20:11:00,61.0,14.0,-100.00,ENE,61,13.0,22.0,16,0.00,,,0.00,0.000000,,2013-03-02 04:11:00,
2013-03-01 20:32:00,61.0,16.0,-100.00,ENE,60,13.0,19.0,17,0.00,,,0.00,0.000000,,2013-03-02 04:32:00,
2013-03-01 20:42:00,61.0,16.0,-100.00,ENE,60,13.0,19.0,17,0.00,,,0.00,0.000000,,2013-03-02 04:42:00,
2013-03-01 20:52:00,61.0,16.0,-100.00,ENE,60,13.0,19.0,17,0.00,,,0.00,0.000000,,2013-03-02 04:52:00,
2013-03-01 21:01:00,61.0,16.0,-100.00,ENE,60,13.0,19.0,17,0.00,,,0.00,0.000000,,2013-03-02 05:01:00,
2013-03-01 21:12:00,61.0,16.0,-100.00,ENE,60,13.0,19.0,17,0.00,,,0.00,0.000000,,2013-03-02 05:12:00,
2013-03-01 21:32:00,61.0,17.0,-100.00,ENE,61,12.0,22.0,18,0.00,,,0.00,0.000000,,2013-03-02 05:32:00,
2013-03-01 21:42:00,61.0,17.0,-100.00,ENE,61,12.0,22.0,18,0.00,,,0.00,0.000000,,2013-03-02 05:42:00,
2013-03-01 21:52:00,61.0,17.0,-100.00,ENE,61,12.0,22.0,18,0.00,,,0.00,0.000000,,2013-03-02 05:52:00,
2013-03-01 22:01:00,61.0,17.0,-100.00,ENE,61,12.0,22.0,18,0.00,,,0.00,0.000000,,2013-03-02 06:01:00,
2013-03-01 22:11:00,61.0,17.0,-100.00,ENE,61,12.0,22.0,18,0.00,,,0.00,0.000000,,2013-03-02 06:11:00,
2013-03-01 22:32:00,60.0,16.0,-100.00,ENE,61,11.0,19.0,18,0.00,,,0.00,0.000000,,2013-03-02 06:32:00,
2013-03-01 22:42:00,60.0,16.0,-100.00,ENE,61,11.0,19.0,18,0.00,,,0.00,0.000000,,2013-03-02 06:42:00,
2013-03-01 22:52:00,60.0,16.0,-100.00,ENE,61,11.0,19.0,18,0.00,,,0.00,0.000000,,2013-03-02 06:52:00,
2013-03-01 23:01:00,60.0,16.0,-100.00,ENE,61,11.0,19.0,18,0.00,,,0.00,0.000000,,2013-03-02 07:01:00,
2013-03-01 23:11:00,60.0,16.0,-100.00,ENE,61,11.0,19.0,18,0.00,,,0.00,0.000000,,2013-03-02 07:11:00,
2013-03-01 23:32:00,59.0,16.0,-100.00,ENE,60,12.0,20.0,18,0.00,,,0.00,0.000000,,2013-03-02 07:32:00,
2013-03-01 23:42:00,59.0,16.0,-100.00,ENE,60,12.0,20.0,18,0.00,,,0.00,0.000000,,2013-03-02 07:42:00,
2013-03-01 23:52:00,59.0,16.0,-100.00,ENE,60,12.0,20.0,18,0.00,,,0.00,0.000000,,2013-03-02 07:52:00,